Tracking 21076 objects as of 7-Aug-2020
HD Live streaming from Space Station
objects crossing your sky now

METEOR 2-5 DEB

Track METEOR 2-5 DEB now!
10-day predictions


NORAD ID: 36923
Int'l Code: 1979-095BQ
Perigee: 803.6 km
Apogee: 843.2 km
Inclination: 81.2 °
Period: 101.2 minutes
Semi major axis: 7194 km
RCS: 0.0003 m2 (small)
Launch date: October 31, 1979
Source: Commonwealth of Independent States (former USSR) (CIS)
Launch site: PLESETSK MISSILE AND SPACE COMPLEX (PKMTR)

Note: This is SATELLITE DEBRIS
aabbcc
Your satellite tracking list
Your tracking list is empty




NASA's NSSDC Master Catalog

Two Line Element Set (TLE):
1 36923U 79095BQ  20219.00205101 +.00000292 +00000-0 +12428-3 0  9999
2 36923 081.2016 093.4636 0027544 331.9962 027.9732 14.22683373604996
Source of the keplerian elements: AFSPC